RS-30
1 32953U 08025A 13080.65117095 .00000010 00000-0 00000 0 0 6967
2 32953 082.5010 122.6316 0020071 065.8812 294.4370 12.43032253219030
METEOR-M
1 35865U 09049A 13080.68680554 -.00000020 00000-0 10670-4 0 3011
2 35865 098.6131 135.2165 0002442 351.4689 008.6445 14.21881433182034
RS-38
1 35869U 09049E 13080.66449392 .00000044 00000-0 39364-4 0 2763
2 35869 098.6075 135.1333 0004643 340.0054 020.0937 14.22117318182057
JUGNU
1 37839U 11058B 13080.40764344 .00000399 00000-0 71573-4 0 3520
2 37839 019.9610 118.6438 0019407 036.3461 081.7635 14.12133568 74479
SRMSAT
1 37841U 11058D 13079.56772602 .00000387 00000-0 68231-4 0 3540
2 37841 019.9713 134.0367 0012124 344.8480 137.4700 14.10207345 74246
RAX-2
1 37853U 11061D 13080.81830883 .00004521 00000-0 35085-3 0 4537
2 37853 101.7153 254.0295 0238527 277.7064 195.1285 14.82561347 75490
AUBIESAT
1 37854U 11061E 13080.81538256 .00004429 00000-0 33758-3 0 4517
2 37854 101.7190 254.7182 0238765 276.5523 198.7583 14.83176147 75508
HRBE
1 37855U 11061F 13080.80149471 .00003817 00000-0 29379-3 0 4484
2 37855 101.7191 254.5199 0239645 276.9550 200.1538 14.82898622 75492
RS-39
1 38051U 11062C 13080.88792726 .00014636 00000-0 50628-3 0 2759
2 38051 051.6351 271.0983 0011119 307.9742 191.6406 15.30057077 64401
E-STAR
1 38079U 12006C 13080.29205494 .00067581 37326-5 14074-2 0 9804
2 38079 069.4843 031.9297 0656968 252.4372 266.8394 14.36901207 57079
GOLIAT
1 38085U 12006J 13080.29048889 .00029718 32118-5 64257-3 0 9076
2 38085 069.4885 033.4995 0663147 253.1532 099.5886 14.35191501 57037
HORYU-2
1 38340U 12025D 13080.95768686 .00001127 00000-0 19326-3 0 4298
2 38340 098.2082 027.9122 0012933 164.9728 195.1826 14.70695844 45297
RS-40
1 38736U 12041D 13080.33578875 .00000010 00000-0 00000 0 0 2176
2 38736 082.4780 209.8918 0021322 151.2541 208.9719 12.43229668 29330
PROITERES
1 38756U 12047B 13080.82720832 .00000737 00000-0 11977-3 0 6146
2 38756 098.2586 156.2496 0013297 029.8208 330.3742 14.74113896 28526
RAIKO
1 38852U 98067CN 13080.55776685 .00053072 00000-0 54359-3 0 1704
2 38852 051.6408 176.4358 0015290 027.8841 332.2970 15.64303551 26099
FITSAT 1
1 38853U 98067CP 13080.48438671 .00073388 00000-0 65957-3 0 1716
2 38853 051.6425 175.2156 0012184 033.9564 326.2210 15.67484776 26150
TechEdSat
1 38854U 98067CQ 13080.64663430 .00166582 00000-0 97728-3 0 1965
2 38854 051.6370 170.2443 0012161 025.6147 334.5454 15.77158168 26239
F 1
1 38855U 98067CR 13080.11799039 .00154895 00000-0 97130-3 0 1931
2 38855 051.6362 173.4581 0011973 024.3740 335.7824 15.75689242 26036
WeWish
1 38856U 98067CS 13069.98095549 .16701328 12537-4 10063-2 0 2487
2 38856 051.6166 215.0521 0008325 316.0438 044.8765 16.41348316 24586
